Time,TemperatureF,DewpointF,PressureIn,WindDirection,WindDirectionDegrees,WindSpeedMPH,WindSpeedGustMPH,Humidity,HourlyPrecipIn,Conditions,Clouds,dailyrainin,SoftwareType,DateUTC
2013-01-10 00:00:00,32.8,27.3,30.30,South,186,13.0,17.0,80,0.00,,,0.01,Wunderground v.1.15,2013-01-10 06:00:00,
2013-01-10 00:06:00,33.0,27.2,30.30,South,186,14.0,14.0,79,0.00,,,0.00,Wunderground v.1.15,2013-01-10 06:06:00,
2013-01-10 00:11:00,33.5,27.7,30.30,South,182,12.0,13.0,79,0.00,,,0.00,Wunderground v.1.15,2013-01-10 06:11:00,
2013-01-10 00:18:00,33.7,27.6,30.29,South,182,17.0,17.0,78,0.00,,,0.00,Wunderground v.1.15,2013-01-10 06:18:00,
2013-01-10 00:24:00,33.5,27.1,30.29,South,182,13.0,15.0,77,0.00,,,0.00,Wunderground v.1.15,2013-01-10 06:24:00,
2013-01-10 00:30:00,34.0,27.5,30.29,South,187,9.0,18.0,77,0.00,,,0.00,Wunderground v.1.15,2013-01-10 06:30:00,
2013-01-10 00:36:00,33.4,27.0,30.29,SSW,193,9.0,14.0,77,0.00,,,0.00,Wunderground v.1.15,2013-01-10 06:36:00,
2013-01-10 00:42:00,33.0,26.9,30.29,SSW,198,9.0,14.0,78,0.00,,,0.00,Wunderground v.1.15,2013-01-10 06:42:00,
2013-01-10 00:48:00,33.0,26.9,30.29,SSW,194,8.0,10.0,78,0.00,,,0.00,Wunderground v.1.15,2013-01-10 06:48:00,
2013-01-10 00:53:00,32.8,26.7,30.29,South,191,11.0,11.0,78,0.00,,,0.00,Wunderground v.1.15,2013-01-10 06:53:00,
2013-01-10 00:59:00,33.2,26.8,30.29,South,182,11.0,13.0,77,0.00,,,0.00,Wunderground v.1.15,2013-01-10 06:59:00,
2013-01-10 01:04:00,32.9,26.5,30.29,South,188,10.0,11.0,77,0.00,,,0.00,Wunderground v.1.15,2013-01-10 07:04:00,
2013-01-10 01:09:00,33.4,27.0,30.28,South,188,11.0,11.0,77,0.00,,,0.00,Wunderground v.1.15,2013-01-10 07:09:00,
2013-01-10 01:15:00,33.6,26.8,30.28,South,188,10.0,12.0,76,0.00,,,0.00,Wunderground v.1.15,2013-01-10 07:15:00,
2013-01-10 01:21:00,33.5,26.7,30.28,South,188,10.0,12.0,76,0.00,,,0.00,Wunderground v.1.15,2013-01-10 07:21:00,
2013-01-10 01:26:00,33.6,26.8,30.28,South,186,10.0,15.0,76,0.00,,,0.00,Wunderground v.1.15,2013-01-10 07:26:00,
2013-01-10 01:33:00,33.7,26.6,30.27,South,182,11.0,15.0,75,0.00,,,0.00,Wunderground v.1.15,2013-01-10 07:33:00,
2013-01-10 01:38:00,33.7,26.6,30.28,South,184,12.0,15.0,75,0.00,,,0.00,Wunderground v.1.15,2013-01-10 07:38:00,
2013-01-10 01:43:00,34.0,26.9,30.28,South,186,11.0,15.0,75,0.00,,,0.00,Wunderground v.1.15,2013-01-10 07:43:00,
2013-01-10 01:51:00,33.9,26.8,30.27,South,179,14.0,15.0,75,0.00,,,0.00,Wunderground v.1.15,2013-01-10 07:51:00,
2013-01-10 01:57:00,33.7,26.6,30.27,South,183,11.0,12.0,75,0.00,,,0.00,Wunderground v.1.15,2013-01-10 07:57:00,
2013-01-10 02:03:00,33.4,26.6,30.28,South,190,9.0,10.0,76,0.00,,,0.00,Wunderground v.1.15,2013-01-10 08:03:00,
2013-01-10 02:08:00,34.3,27.2,30.28,South,185,11.0,16.0,75,0.00,,,0.00,Wunderground v.1.15,2013-01-10 08:08:00,
2013-01-10 02:13:00,34.3,26.9,30.28,South,188,12.0,15.0,74,0.00,,,0.00,Wunderground v.1.15,2013-01-10 08:13:00,
2013-01-10 02:18:00,33.4,26.0,30.28,South,184,7.0,15.0,74,0.00,,,0.00,Wunderground v.1.15,2013-01-10 08:18:00,
2013-01-10 02:23:00,33.4,26.6,30.28,South,188,9.0,13.0,76,0.00,,,0.00,Wunderground v.1.15,2013-01-10 08:23:00,
2013-01-10 02:29:00,34.1,27.0,30.27,South,187,11.0,14.0,75,0.00,,,0.00,Wunderground v.1.15,2013-01-10 08:29:00,
2013-01-10 02:35:00,34.4,27.0,30.28,South,182,13.0,16.0,74,0.00,,,0.00,Wunderground v.1.15,2013-01-10 08:35:00,
2013-01-10 02:41:00,33.7,26.3,30.28,SSW,194,10.0,12.0,74,0.00,,,0.00,Wunderground v.1.15,2013-01-10 08:41:00,
2013-01-10 02:46:00,33.2,26.5,30.28,SSW,192,15.0,15.0,76,0.00,,,0.00,Wunderground v.1.15,2013-01-10 08:46:00,
2013-01-10 02:52:00,33.9,26.8,30.27,South,184,12.0,12.0,75,0.00,,,0.00,Wunderground v.1.15,2013-01-10 08:52:00,
2013-01-10 02:57:00,34.4,27.0,30.27,South,186,8.0,15.0,74,0.00,,,0.00,Wunderground v.1.15,2013-01-10 08:57:00,
2013-01-10 03:02:00,34.9,27.1,30.27,South,191,13.0,13.0,73,0.00,,,0.00,Wunderground v.1.15,2013-01-10 09:02:00,
2013-01-10 03:07:00,34.8,26.7,30.27,South,188,9.0,13.0,72,0.00,,,0.00,Wunderground v.1.15,2013-01-10 09:07:00,
2013-01-10 03:12:00,34.4,26.3,30.26,South,182,8.0,10.0,72,0.00,,,0.00,Wunderground v.1.15,2013-01-10 09:12:00,
2013-01-10 03:17:00,33.7,26.0,30.26,South,180,7.0,12.0,73,0.00,,,0.00,Wunderground v.1.15,2013-01-10 09:17:00,
2013-01-10 03:22:00,33.4,25.7,30.26,South,186,10.0,14.0,73,0.00,,,0.00,Wunderground v.1.15,2013-01-10 09:22:00,
2013-01-10 03:27:00,32.9,25.2,30.26,South,176,11.0,14.0,73,0.00,,,0.00,Wunderground v.1.15,2013-01-10 09:27:00,
2013-01-10 03:32:00,32.6,25.2,30.26,South,171,9.0,13.0,74,0.00,,,0.00,Wunderground v.1.15,2013-01-10 09:32:00,
2013-01-10 03:37:00,32.6,25.2,30.25,South,175,7.0,13.0,74,0.00,,,0.00,Wunderground v.1.15,2013-01-10 09:37:00,
2013-01-10 03:42:00,32.3,24.9,30.25,South,174,10.0,11.0,74,0.00,,,0.00,Wunderground v.1.15,2013-01-10 09:42:00,
2013-01-10 03:47:00,31.9,24.9,30.25,South,176,8.0,11.0,75,0.00,,,0.00,Wunderground v.1.15,2013-01-10 09:47:00,
2013-01-10 03:52:00,31.5,24.8,30.24,South,173,5.0,9.0,76,0.00,,,0.00,Wunderground v.1.15,2013-01-10 09:52:00,
2013-01-10 03:57:00,32.2,25.5,30.24,South,173,10.0,11.0,76,0.00,,,0.00,Wunderground v.1.15,2013-01-10 09:57:00,
2013-01-10 04:02:00,32.0,25.0,30.25,South,172,8.0,9.0,75,0.00,,,0.00,Wunderground v.1.15,2013-01-10 10:02:00,
2013-01-10 04:07:00,31.7,24.7,30.25,South,171,6.0,11.0,75,0.00,,,0.00,Wunderground v.1.15,2013-01-10 10:07:00,
2013-01-10 04:12:00,31.7,24.7,30.24,South,170,8.0,12.0,75,0.00,,,0.00,Wunderground v.1.15,2013-01-10 10:12:00,
2013-01-10 04:17:00,31.7,25.0,30.24,South,171,7.0,12.0,76,0.00,,,0.00,Wunderground v.1.15,2013-01-10 10:17:00,
2013-01-10 04:22:00,31.9,25.2,30.24,South,173,7.0,11.0,76,0.00,,,0.00,Wunderground v.1.15,2013-01-10 10:22:00,
2013-01-10 04:27:00,31.8,24.8,30.24,South,172,7.0,13.0,75,0.00,,,0.00,Wunderground v.1.15,2013-01-10 10:27:00,
2013-01-10 04:32:00,31.3,24.6,30.24,South,169,8.0,10.0,76,0.00,,,0.00,Wunderground v.1.15,2013-01-10 10:32:00,
2013-01-10 04:37:00,31.3,24.6,30.23,South,173,8.0,14.0,76,0.00,,,0.00,Wunderground v.1.15,2013-01-10 10:37:00,
2013-01-10 04:42:00,31.1,24.4,30.23,SSE,168,7.0,9.0,76,0.00,,,0.00,Wunderground v.1.15,2013-01-10 10:42:00,
2013-01-10 04:48:00,31.0,24.3,30.23,South,169,8.0,11.0,76,0.00,,,0.00,Wunderground v.1.15,2013-01-10 10:48:00,
2013-01-10 04:53:00,31.1,24.7,30.23,South,169,10.0,12.0,77,0.00,,,0.00,Wunderground v.1.15,2013-01-10 10:53:00,
2013-01-10 04:58:00,31.0,24.6,30.23,South,169,10.0,12.0,77,0.00,,,0.00,Wunderground v.1.15,2013-01-10 10:58:00,
2013-01-10 05:03:00,30.7,24.3,30.23,SSE,167,8.0,11.0,77,0.00,,,0.00,Wunderground v.1.15,2013-01-10 11:03:00,
2013-01-10 05:08:00,30.3,24.0,30.23,SSE,167,7.0,12.0,77,0.00,,,0.00,Wunderground v.1.15,2013-01-10 11:08:00,
2013-01-10 05:13:00,30.0,24.0,30.23,SSE,167,10.0,11.0,78,0.00,,,0.00,Wunderground v.1.15,2013-01-10 11:13:00,
2013-01-10 05:18:00,30.1,24.1,30.23,South,172,7.0,11.0,78,0.00,,,0.00,Wunderground v.1.15,2013-01-10 11:18:00,
2013-01-10 05:23:00,29.9,23.9,30.23,South,169,11.0,13.0,78,0.00,,,0.00,Wunderground v.1.15,2013-01-10 11:23:00,
2013-01-10 05:28:00,29.7,23.7,30.23,SSE,165,11.0,13.0,78,0.00,,,0.00,Wunderground v.1.15,2013-01-10 11:28:00,
2013-01-10 05:34:00,29.1,23.1,30.22,SSE,165,7.0,9.0,78,0.00,,,0.00,Wunderground v.1.15,2013-01-10 11:34:00,
2013-01-10 05:39:00,29.2,23.5,30.22,SSE,167,9.0,10.0,79,0.00,,,0.00,Wunderground v.1.15,2013-01-10 11:39:00,
2013-01-10 05:44:00,29.0,23.3,30.23,SSE,167,5.0,9.0,79,0.00,,,0.00,Wunderground v.1.15,2013-01-10 11:44:00,
2013-01-10 05:49:00,29.0,23.3,30.23,SSE,168,7.0,10.0,79,0.00,,,0.00,Wunderground v.1.15,2013-01-10 11:49:00,
2013-01-10 05:54:00,29.0,23.3,30.22,SSE,167,8.0,10.0,79,0.00,,,0.00,Wunderground v.1.15,2013-01-10 11:54:00,
2013-01-10 05:59:00,29.0,23.0,30.22,South,169,8.0,13.0,78,0.00,,,0.00,Wunderground v.1.15,2013-01-10 11:59:00,
2013-01-10 06:05:00,28.5,22.5,30.22,South,171,7.0,10.0,78,0.00,,,0.00,Wunderground v.1.15,2013-01-10 12:05:00,
2013-01-10 06:10:00,28.2,22.5,30.22,South,172,6.0,12.0,79,0.00,,,0.00,Wunderground v.1.15,2013-01-10 12:10:00,
2013-01-10 06:16:00,28.9,23.2,30.21,South,172,9.0,12.0,79,0.00,,,0.00,Wunderground v.1.15,2013-01-10 12:16:00,
2013-01-10 06:21:00,29.2,23.2,30.21,South,171,6.0,8.0,78,0.00,,,0.00,Wunderground v.1.15,2013-01-10 12:21:00,
2013-01-10 06:26:00,29.3,23.3,30.20,South,172,10.0,10.0,78,0.00,,,0.00,Wunderground v.1.15,2013-01-10 12:26:00,
2013-01-10 06:31:00,28.7,22.7,30.20,South,172,12.0,12.0,78,0.00,,,0.00,Wunderground v.1.15,2013-01-10 12:31:00,
2013-01-10 06:36:00,28.5,22.5,30.20,South,175,8.0,14.0,78,0.00,,,0.00,Wunderground v.1.15,2013-01-10 12:36:00,
2013-01-10 06:41:00,27.9,21.9,30.20,South,173,10.0,10.0,78,0.00,,,0.00,Wunderground v.1.15,2013-01-10 12:41:00,
2013-01-10 06:46:00,27.3,21.6,30.20,South,171,10.0,12.0,79,0.00,,,0.00,Wunderground v.1.15,2013-01-10 12:46:00,
2013-01-10 06:51:00,27.6,22.2,30.20,SSE,168,7.0,12.0,80,0.00,,,0.00,Wunderground v.1.15,2013-01-10 12:51:00,
2013-01-10 06:57:00,28.3,22.9,30.20,SSE,168,7.0,12.0,80,0.00,,,0.00,Wunderground v.1.15,2013-01-10 12:57:00,
2013-01-10 07:02:00,27.8,22.1,30.20,SSE,168,8.0,9.0,79,0.00,,,0.00,Wunderground v.1.15,2013-01-10 13:02:00,
2013-01-10 07:07:00,27.8,22.1,30.20,SSE,167,7.0,10.0,79,0.00,,,0.00,Wunderground v.1.15,2013-01-10 13:07:00,
2013-01-10 07:13:00,27.8,22.4,30.20,SSE,167,10.0,10.0,80,0.00,,,0.00,Wunderground v.1.15,2013-01-10 13:13:00,
2013-01-10 07:18:00,28.2,22.8,30.19,SSE,165,8.0,11.0,80,0.00,,,0.00,Wunderground v.1.15,2013-01-10 13:18:00,
2013-01-10 07:23:00,28.6,22.9,30.19,SSE,166,8.0,9.0,79,0.00,,,0.00,Wunderground v.1.15,2013-01-10 13:23:00,
2013-01-10 07:28:00,29.2,23.5,30.19,South,173,11.0,13.0,79,0.00,,,0.00,Wunderground v.1.15,2013-01-10 13:28:00,
2013-01-10 07:33:00,29.0,23.0,30.20,SSE,168,10.0,13.0,78,0.00,,,0.00,Wunderground v.1.15,2013-01-10 13:33:00,
2013-01-10 07:38:00,28.6,22.6,30.19,SSE,168,6.0,13.0,78,0.00,,,0.00,Wunderground v.1.15,2013-01-10 13:38:00,
2013-01-10 07:43:00,28.8,22.8,30.19,South,169,10.0,11.0,78,0.00,,,0.00,Wunderground v.1.15,2013-01-10 13:43:00,
2013-01-10 07:49:00,29.1,23.1,30.19,South,170,7.0,12.0,78,0.00,,,0.00,Wunderground v.1.15,2013-01-10 13:49:00,
2013-01-10 07:54:00,28.8,22.8,30.19,SSE,167,6.0,8.0,78,0.00,,,0.00,Wunderground v.1.15,2013-01-10 13:54:00,
2013-01-10 07:59:00,28.3,22.3,30.18,SSE,165,8.0,10.0,78,0.00,,,0.00,Wunderground v.1.15,2013-01-10 13:59:00,
2013-01-10 08:04:00,28.5,22.5,30.18,SSE,165,7.0,12.0,78,0.00,,,0.00,Wunderground v.1.15,2013-01-10 14:04:00,
2013-01-10 08:09:00,28.8,22.8,30.18,SSE,165,7.0,12.0,78,0.00,,,0.00,Wunderground v.1.15,2013-01-10 14:09:00,
2013-01-10 08:14:00,28.6,22.6,30.18,SSE,165,8.0,10.0,78,0.00,,,0.00,Wunderground v.1.15,2013-01-10 14:14:00,
2013-01-10 08:19:00,28.4,22.4,30.18,SSE,165,8.0,11.0,78,0.00,,,0.00,Wunderground v.1.15,2013-01-10 14:19:00,
2013-01-10 08:25:00,28.7,22.7,30.18,SSE,164,4.0,9.0,78,0.00,,,0.00,Wunderground v.1.15,2013-01-10 14:25:00,
2013-01-10 08:30:00,29.8,23.5,30.18,SSE,164,7.0,10.0,77,0.00,,,0.00,Wunderground v.1.15,2013-01-10 14:30:00,
2013-01-10 08:35:00,30.5,23.8,30.18,SSE,165,8.0,11.0,76,0.00,,,0.00,Wunderground v.1.15,2013-01-10 14:35:00,
2013-01-10 08:40:00,30.4,23.4,30.18,SSE,165,9.0,11.0,75,0.00,,,0.00,Wunderground v.1.15,2013-01-10 14:40:00,
2013-01-10 08:45:00,30.7,23.7,30.18,SSE,164,8.0,10.0,75,0.00,,,0.00,Wunderground v.1.15,2013-01-10 14:45:00,
2013-01-10 08:50:00,30.5,23.2,30.18,SSE,164,7.0,12.0,74,0.00,,,0.00,Wunderground v.1.15,2013-01-10 14:50:00,
2013-01-10 08:55:00,30.5,23.2,30.17,SSE,163,11.0,13.0,74,0.00,,,0.00,Wunderground v.1.15,2013-01-10 14:55:00,
2013-01-10 09:00:00,30.5,23.2,30.17,SSE,161,9.0,13.0,74,0.00,,,0.00,Wunderground v.1.15,2013-01-10 15:00:00,
2013-01-10 09:06:00,30.7,23.4,30.17,SSE,160,8.0,10.0,74,0.00,,,0.00,Wunderground v.1.15,2013-01-10 15:06:00,
2013-01-10 09:11:00,30.9,23.6,30.17,SSE,160,7.0,10.0,74,0.00,,,0.00,Wunderground v.1.15,2013-01-10 15:11:00,
2013-01-10 09:17:00,30.9,23.6,30.16,SSE,155,8.0,13.0,74,0.00,,,0.00,Wunderground v.1.15,2013-01-10 15:17:00,
2013-01-10 09:23:00,31.0,23.7,30.16,SSE,155,8.0,12.0,74,0.00,,,0.00,Wunderground v.1.15,2013-01-10 15:23:00,
2013-01-10 09:28:00,31.0,23.7,30.16,SSE,155,5.0,12.0,74,0.00,,,0.00,Wunderground v.1.15,2013-01-10 15:28:00,
2013-01-10 09:33:00,31.0,23.7,30.16,SSE,155,6.0,10.0,74,0.00,,,0.00,Wunderground v.1.15,2013-01-10 15:33:00,
2013-01-10 09:39:00,31.1,23.8,30.15,SSE,155,8.0,10.0,74,0.00,,,0.00,Wunderground v.1.15,2013-01-10 15:39:00,
2013-01-10 09:44:00,31.4,24.1,30.15,SSE,155,5.0,8.0,74,0.00,,,0.00,Wunderground v.1.15,2013-01-10 15:44:00,
2013-01-10 09:49:00,31.5,23.8,30.14,SSE,155,6.0,8.0,73,0.00,,,0.00,Wunderground v.1.15,2013-01-10 15:49:00,
2013-01-10 09:54:00,31.4,24.1,30.14,SSE,155,6.0,8.0,74,0.00,,,0.00,Wunderground v.1.15,2013-01-10 15:54:00,
2013-01-10 09:59:00,31.4,24.1,30.14,SSE,155,6.0,8.0,74,0.00,,,0.00,Wunderground v.1.15,2013-01-10 15:59:00,
2013-01-10 10:05:00,31.4,24.1,30.13,SSE,155,9.0,10.0,74,0.00,,,0.00,Wunderground v.1.15,2013-01-10 16:05:00,
2013-01-10 10:10:00,31.5,24.2,30.13,SSE,155,6.0,7.0,74,0.00,,,0.00,Wunderground v.1.15,2013-01-10 16:10:00,
2013-01-10 10:16:00,31.7,24.0,30.13,SSE,155,6.0,9.0,73,0.00,,,0.00,Wunderground v.1.15,2013-01-10 16:16:00,
2013-01-10 10:21:00,31.9,24.2,30.12,SSE,155,6.0,9.0,73,0.00,,,0.00,Wunderground v.1.15,2013-01-10 16:21:00,
2013-01-10 10:27:00,32.2,24.5,30.12,SSE,155,8.0,9.0,73,0.00,,,0.00,Wunderground v.1.15,2013-01-10 16:27:00,
2013-01-10 10:32:00,32.7,24.7,30.11,SSE,154,8.0,9.0,72,0.00,,,0.00,Wunderground v.1.15,2013-01-10 16:32:00,
2013-01-10 10:37:00,33.0,24.6,30.10,SE,146,8.0,13.0,71,0.00,,,0.00,Wunderground v.1.15,2013-01-10 16:37:00,
2013-01-10 10:42:00,33.1,24.7,30.10,SE,146,7.0,12.0,71,0.00,,,0.00,Wunderground v.1.15,2013-01-10 16:42:00,
2013-01-10 10:48:00,33.6,24.9,30.10,SSE,152,6.0,12.0,70,0.00,,,0.00,Wunderground v.1.15,2013-01-10 16:48:00,
2013-01-10 10:54:00,33.9,24.8,30.09,SSE,148,6.0,14.0,69,0.00,,,0.00,Wunderground v.1.15,2013-01-10 16:54:00,
2013-01-10 11:00:00,34.3,24.8,30.08,SSE,150,13.0,14.0,68,0.00,,,0.00,Wunderground v.1.15,2013-01-10 17:00:00,
2013-01-10 11:05:00,34.4,24.9,30.08,SSE,149,11.0,14.0,68,0.00,,,0.00,Wunderground v.1.15,2013-01-10 17:05:00,
2013-01-10 11:11:00,34.3,24.8,30.07,SSE,158,10.0,15.0,68,0.00,,,0.00,Wunderground v.1.15,2013-01-10 17:11:00,
2013-01-10 11:16:00,34.3,25.2,30.07,SSE,150,10.0,15.0,69,0.00,,,0.00,Wunderground v.1.15,2013-01-10 17:16:00,
2013-01-10 11:21:00,34.8,25.3,30.06,SSE,150,7.0,13.0,68,0.00,,,0.00,Wunderground v.1.15,2013-01-10 17:21:00,
2013-01-10 11:26:00,35.3,25.1,30.06,SSE,149,10.0,15.0,66,0.00,,,0.00,Wunderground v.1.15,2013-01-10 17:26:00,
2013-01-10 11:32:00,35.4,24.8,30.06,SSE,150,12.0,12.0,65,0.00,,,0.00,Wunderground v.1.15,2013-01-10 17:32:00,
2013-01-10 11:38:00,35.4,25.2,30.05,SSE,153,10.0,17.0,66,0.00,,,0.00,Wunderground v.1.15,2013-01-10 17:38:00,
2013-01-10 11:44:00,35.6,25.4,30.05,SSE,149,8.0,12.0,66,0.00,,,0.00,Wunderground v.1.15,2013-01-10 17:44:00,
2013-01-10 11:49:00,35.9,25.6,30.04,SSE,157,11.0,14.0,66,0.00,,,0.00,Wunderground v.1.15,2013-01-10 17:49:00,
2013-01-10 11:55:00,36.2,26.3,30.03,SSE,153,6.0,8.0,67,0.00,,,0.00,Wunderground v.1.15,2013-01-10 17:55:00,
2013-01-10 12:00:00,36.0,25.7,30.03,SSE,163,11.0,13.0,66,0.00,,,0.00,Wunderground v.1.15,2013-01-10 18:00:00,
2013-01-10 12:05:00,35.7,25.8,30.03,SSE,161,8.0,12.0,67,0.00,,,0.00,Wunderground v.1.15,2013-01-10 18:05:00,
2013-01-10 12:10:00,35.9,25.6,30.03,SSE,161,11.0,12.0,66,0.00,,,0.00,Wunderground v.1.15,2013-01-10 18:10:00,
2013-01-10 12:15:00,36.0,25.7,30.02,SSE,157,11.0,15.0,66,0.00,,,0.00,Wunderground v.1.15,2013-01-10 18:15:00,
2013-01-10 12:20:00,36.0,26.1,30.01,SSE,154,8.0,15.0,67,0.00,,,0.00,Wunderground v.1.15,2013-01-10 18:20:00,
2013-01-10 12:25:00,36.0,25.7,30.00,SSE,157,10.0,13.0,66,0.00,,,0.00,Wunderground v.1.15,2013-01-10 18:25:00,
2013-01-10 12:30:00,35.8,25.9,30.00,SSE,156,11.0,16.0,67,0.00,,,0.00,Wunderground v.1.15,2013-01-10 18:30:00,
2013-01-10 12:36:00,35.5,26.0,29.99,SSE,149,11.0,16.0,68,0.00,,,0.00,Wunderground v.1.15,2013-01-10 18:36:00,
2013-01-10 12:41:00,35.4,26.2,29.99,SSE,153,14.0,14.0,69,0.00,,,0.00,Wunderground v.1.15,2013-01-10 18:41:00,
2013-01-10 12:46:00,35.5,26.0,29.98,SSE,160,10.0,16.0,68,0.00,,,0.00,Wunderground v.1.15,2013-01-10 18:46:00,
2013-01-10 12:51:00,35.5,26.3,29.97,SSE,155,9.0,11.0,69,0.00,,,0.00,Wunderground v.1.15,2013-01-10 18:51:00,
2013-01-10 12:57:00,35.4,26.2,29.97,SSE,157,11.0,13.0,69,0.00,,,0.00,Wunderground v.1.15,2013-01-10 18:57:00,
2013-01-10 13:02:00,35.3,26.5,29.97,SSE,157,7.0,10.0,70,0.00,,,0.00,Wunderground v.1.15,2013-01-10 19:02:00,
2013-01-10 13:07:00,35.3,26.5,29.96,SSE,156,4.0,10.0,70,0.00,,,0.00,Wunderground v.1.15,2013-01-10 19:07:00,
2013-01-10 13:12:00,35.3,26.5,29.97,SSE,155,6.0,7.0,70,0.00,,,0.00,Wunderground v.1.15,2013-01-10 19:12:00,
2013-01-10 13:17:00,35.4,26.6,29.97,SSE,152,7.0,11.0,70,0.00,,,0.00,Wunderground v.1.15,2013-01-10 19:17:00,
2013-01-10 13:22:00,35.5,26.3,29.96,SSE,150,12.0,12.0,69,0.00,,,0.00,Wunderground v.1.15,2013-01-10 19:22:00,
2013-01-10 13:27:00,35.7,26.2,29.96,SSE,147,9.0,12.0,68,0.00,,,0.00,Wunderground v.1.15,2013-01-10 19:27:00,
2013-01-10 13:32:00,35.7,26.5,29.96,SE,146,7.0,8.0,69,0.00,,,0.00,Wunderground v.1.15,2013-01-10 19:32:00,
2013-01-10 13:37:00,35.8,26.3,29.96,SE,146,3.0,12.0,68,0.00,,,0.00,Wunderground v.1.15,2013-01-10 19:37:00,
2013-01-10 13:43:00,35.8,26.3,29.96,SE,145,9.0,9.0,68,0.00,,,0.00,Wunderground v.1.15,2013-01-10 19:43:00,
2013-01-10 13:48:00,35.6,26.4,29.95,SE,144,8.0,10.0,69,0.00,,,0.00,Wunderground v.1.15,2013-01-10 19:48:00,
2013-01-10 13:53:00,35.5,26.3,29.95,SE,141,4.0,10.0,69,0.00,,,0.00,Wunderground v.1.15,2013-01-10 19:53:00,
2013-01-10 13:59:00,35.4,26.2,29.94,SE,138,9.0,12.0,69,0.00,,,0.00,Wunderground v.1.15,2013-01-10 19:59:00,
2013-01-10 14:04:00,35.4,26.2,29.94,SE,132,9.0,14.0,69,0.00,,,0.00,Wunderground v.1.15,2013-01-10 20:04:00,
2013-01-10 14:09:00,35.3,26.5,29.94,SE,133,10.0,14.0,70,0.00,,,0.00,Wunderground v.1.15,2013-01-10 20:09:00,
2013-01-10 14:15:00,35.3,26.5,29.94,SE,136,9.0,11.0,70,0.00,,,0.00,Wunderground v.1.15,2013-01-10 20:15:00,
2013-01-10 14:20:00,35.2,26.7,29.94,SE,140,9.0,12.0,71,0.00,,,0.00,Wunderground v.1.15,2013-01-10 20:20:00,
2013-01-10 14:25:00,35.1,26.6,29.94,SE,140,9.0,11.0,71,0.00,,,0.00,Wunderground v.1.15,2013-01-10 20:25:00,
2013-01-10 14:30:00,35.0,26.9,29.94,SE,130,11.0,15.0,72,0.00,,,0.00,Wunderground v.1.15,2013-01-10 20:30:00,
2013-01-10 14:35:00,34.4,27.0,29.93,SE,134,9.0,13.0,74,0.00,,,0.00,Wunderground v.1.15,2013-01-10 20:35:00,
2013-01-10 14:41:00,33.8,27.7,29.93,SE,137,10.0,10.0,78,0.00,,,0.00,Wunderground v.1.15,2013-01-10 20:41:00,
2013-01-10 14:46:00,33.8,29.8,29.93,SE,134,10.0,11.0,85,0.00,,,0.00,Wunderground v.1.15,2013-01-10 20:46:00,
2013-01-10 14:51:00,34.0,28.2,29.92,SE,137,10.0,10.0,79,0.00,,,0.00,Wunderground v.1.15,2013-01-10 20:51:00,
2013-01-10 14:56:00,33.8,28.0,29.92,SE,136,7.0,12.0,79,0.00,,,0.01,Wunderground v.1.15,2013-01-10 20:56:00,
2013-01-10 15:02:00,33.7,28.2,29.92,SE,137,7.0,8.0,80,0.00,,,0.01,Wunderground v.1.15,2013-01-10 21:02:00,
2013-01-10 15:07:00,33.5,28.0,29.92,SE,137,6.0,9.0,80,0.00,,,0.01,Wunderground v.1.15,2013-01-10 21:07:00,
2013-01-10 15:12:00,33.5,28.3,29.92,SE,137,2.0,6.0,81,0.04,,,0.02,Wunderground v.1.15,2013-01-10 21:12:00,
2013-01-10 15:18:00,33.4,28.2,29.91,SE,137,6.0,9.0,81,0.04,,,0.02,Wunderground v.1.15,2013-01-10 21:18:00,
2013-01-10 15:23:00,33.4,28.2,29.91,SE,137,5.0,9.0,81,0.06,,,0.03,Wunderground v.1.15,2013-01-10 21:23:00,
2013-01-10 15:28:00,33.5,28.3,29.91,SE,137,4.0,9.0,81,0.06,,,0.03,Wunderground v.1.15,2013-01-10 21:28:00,
2013-01-10 15:33:00,33.6,28.1,29.90,SE,134,6.0,8.0,80,0.04,,,0.03,Wunderground v.1.15,2013-01-10 21:33:00,
2013-01-10 15:40:00,33.7,28.2,29.89,SE,132,3.0,13.0,80,0.00,,,0.03,Wunderground v.1.15,2013-01-10 21:40:00,
2013-01-10 15:46:00,33.4,28.2,29.89,SE,137,7.0,13.0,81,0.00,,,0.04,Wunderground v.1.15,2013-01-10 21:46:00,
2013-01-10 15:51:00,33.2,28.0,29.89,SE,142,12.0,14.0,81,0.00,,,0.04,Wunderground v.1.15,2013-01-10 21:51:00,
2013-01-10 15:56:00,33.0,28.1,29.89,SE,142,7.0,14.0,82,0.00,,,0.04,Wunderground v.1.15,2013-01-10 21:56:00,
2013-01-10 16:01:00,32.7,28.1,29.88,SE,140,6.0,10.0,83,0.00,,,0.04,Wunderground v.1.15,2013-01-10 22:01:00,
2013-01-10 16:07:00,32.4,28.1,29.88,SE,136,12.0,15.0,84,0.00,,,0.04,Wunderground v.1.15,2013-01-10 22:07:00,
2013-01-10 16:12:00,32.2,28.5,29.87,SE,146,13.0,13.0,86,0.00,,,0.05,Wunderground v.1.15,2013-01-10 22:12:00,
2013-01-10 16:17:00,32.1,28.4,29.87,SE,138,6.0,14.0,86,0.07,,,0.06,Wunderground v.1.15,2013-01-10 22:17:00,
2013-01-10 16:22:00,32.0,28.6,29.87,SE,145,6.0,13.0,87,0.07,,,0.06,Wunderground v.1.15,2013-01-10 22:22:00,
2013-01-10 16:27:00,32.0,28.8,29.87,SE,138,10.0,13.0,88,0.06,,,0.06,Wunderground v.1.15,2013-01-10 22:27:00,
2013-01-10 16:32:00,32.0,28.8,29.87,SE,137,9.0,13.0,88,0.04,,,0.07,Wunderground v.1.15,2013-01-10 22:32:00,
2013-01-10 16:37:00,32.0,28.8,29.86,SE,140,7.0,14.0,88,0.04,,,0.07,Wunderground v.1.15,2013-01-10 22:37:00,
2013-01-10 16:43:00,31.9,29.0,29.86,SE,145,10.0,14.0,89,0.04,,,0.07,Wunderground v.1.15,2013-01-10 22:43:00,
2013-01-10 16:48:00,31.9,29.0,29.86,SE,142,9.0,15.0,89,0.00,,,0.07,Wunderground v.1.15,2013-01-10 22:48:00,
2013-01-10 16:54:00,31.8,28.9,29.85,SE,137,8.0,11.0,89,0.00,,,0.07,Wunderground v.1.15,2013-01-10 22:54:00,
2013-01-10 17:00:00,31.7,28.8,29.84,SE,142,8.0,16.0,89,0.00,,,0.07,Wunderground v.1.15,2013-01-10 23:00:00,
2013-01-10 17:05:00,31.8,28.9,29.84,SE,146,15.0,15.0,89,0.00,,,0.07,Wunderground v.1.15,2013-01-10 23:05:00,
2013-01-10 17:10:00,31.8,28.9,29.83,SE,143,8.0,20.0,89,0.00,,,0.07,Wunderground v.1.15,2013-01-10 23:10:00,
2013-01-10 17:15:00,31.8,28.9,29.83,SE,137,13.0,15.0,89,0.00,,,0.07,Wunderground v.1.15,2013-01-10 23:15:00,
2013-01-10 17:21:00,31.8,29.2,29.82,SE,136,12.0,12.0,90,0.00,,,0.07,Wunderground v.1.15,2013-01-10 23:21:00,
2013-01-10 17:26:00,31.8,29.2,29.82,SE,137,7.0,15.0,90,0.00,,,0.07,Wunderground v.1.15,2013-01-10 23:26:00,
2013-01-10 17:32:00,31.9,29.3,29.81,SE,140,10.0,14.0,90,0.00,,,0.07,Wunderground v.1.15,2013-01-10 23:32:00,
2013-01-10 17:37:00,31.8,29.2,29.81,SE,136,5.0,14.0,90,0.00,,,0.07,Wunderground v.1.15,2013-01-10 23:37:00,
2013-01-10 17:42:00,31.8,29.2,29.81,SE,137,13.0,15.0,90,0.00,,,0.07,Wunderground v.1.15,2013-01-10 23:42:00,
2013-01-10 17:47:00,31.8,29.2,29.80,SE,135,7.0,15.0,90,0.00,,,0.07,Wunderground v.1.15,2013-01-10 23:47:00,
2013-01-10 17:53:00,31.7,29.1,29.79,SE,134,11.0,13.0,90,0.00,,,0.07,Wunderground v.1.15,2013-01-10 23:53:00,
2013-01-10 17:58:00,31.7,29.1,29.78,SE,130,14.0,16.0,90,0.00,,,0.07,Wunderground v.1.15,2013-01-10 23:58:00,
2013-01-10 18:04:00,31.7,29.1,29.78,SE,135,12.0,12.0,90,0.00,,,0.07,Wunderground v.1.15,2013-01-11 00:04:00,
2013-01-10 18:09:00,31.7,29.1,29.79,SE,145,17.0,17.0,90,0.00,,,0.07,Wunderground v.1.15,2013-01-11 00:09:00,
2013-01-10 18:14:00,31.8,29.5,29.80,SSE,155,8.0,15.0,91,0.00,,,0.07,Wunderground v.1.15,2013-01-11 00:14:00,
2013-01-10 18:20:00,31.8,29.5,29.81,SSE,151,11.0,16.0,91,0.00,,,0.07,Wunderground v.1.15,2013-01-11 00:20:00,
2013-01-10 18:25:00,31.9,29.6,29.81,SSE,150,9.0,17.0,91,0.00,,,0.07,Wunderground v.1.15,2013-01-11 00:25:00,
2013-01-10 18:31:00,31.9,29.6,29.81,SSE,155,9.0,11.0,91,0.00,,,0.07,Wunderground v.1.15,2013-01-11 00:31:00,
2013-01-10 18:36:00,31.8,29.5,29.81,SSE,160,11.0,14.0,91,0.00,,,0.07,Wunderground v.1.15,2013-01-11 00:36:00,
2013-01-10 18:41:00,31.8,29.5,29.80,SSE,163,12.0,13.0,91,0.00,,,0.07,Wunderground v.1.15,2013-01-11 00:41:00,
2013-01-10 18:46:00,31.8,29.5,29.80,SSE,157,10.0,14.0,91,0.00,,,0.07,Wunderground v.1.15,2013-01-11 00:46:00,
2013-01-10 18:51:00,31.8,29.5,29.79,SSE,156,9.0,10.0,91,0.00,,,0.07,Wunderground v.1.15,2013-01-11 00:51:00,
2013-01-10 18:56:00,31.8,29.5,29.78,SSE,152,10.0,12.0,91,0.00,,,0.07,Wunderground v.1.15,2013-01-11 00:56:00,
2013-01-10 19:01:00,31.8,29.5,29.78,SSE,148,7.0,10.0,91,0.00,,,0.07,Wunderground v.1.15,2013-01-11 01:01:00,
2013-01-10 19:07:00,31.8,29.5,29.77,SSE,149,8.0,13.0,91,0.00,,,0.07,Wunderground v.1.15,2013-01-11 01:07:00,
2013-01-10 19:12:00,31.8,29.5,29.77,SE,142,12.0,12.0,91,0.00,,,0.07,Wunderground v.1.15,2013-01-11 01:12:00,
2013-01-10 19:17:00,31.8,29.5,29.76,SE,142,9.0,13.0,91,0.00,,,0.07,Wunderground v.1.15,2013-01-11 01:17:00,
2013-01-10 19:22:00,31.8,29.5,29.76,SE,144,12.0,12.0,91,0.00,,,0.07,Wunderground v.1.15,2013-01-11 01:22:00,
2013-01-10 19:27:00,31.8,29.5,29.76,SE,144,5.0,12.0,91,0.00,,,0.07,Wunderground v.1.15,2013-01-11 01:27:00,
2013-01-10 19:32:00,31.8,29.5,29.76,SE,143,5.0,10.0,91,0.00,,,0.07,Wunderground v.1.15,2013-01-11 01:32:00,
2013-01-10 19:37:00,31.8,29.5,29.76,SE,141,7.0,12.0,91,0.00,,,0.07,Wunderground v.1.15,2013-01-11 01:37:00,
2013-01-10 19:42:00,31.9,29.6,29.76,SSE,148,7.0,14.0,91,0.00,,,0.07,Wunderground v.1.15,2013-01-11 01:42:00,
2013-01-10 19:47:00,31.8,29.7,29.76,SE,145,9.0,14.0,92,0.00,,,0.07,Wunderground v.1.15,2013-01-11 01:47:00,
2013-01-10 19:52:00,31.8,29.7,29.76,SSE,150,12.0,12.0,92,0.00,,,0.08,Wunderground v.1.15,2013-01-11 01:52:00,
2013-01-10 19:58:00,31.8,29.7,29.76,SSE,149,12.0,13.0,92,0.00,,,0.08,Wunderground v.1.15,2013-01-11 01:58:00,
2013-01-10 20:03:00,31.8,29.7,29.75,SSE,158,11.0,11.0,92,0.00,,,0.08,Wunderground v.1.15,2013-01-11 02:03:00,
2013-01-10 20:08:00,31.8,29.7,29.74,SSE,155,9.0,12.0,92,0.00,,,0.08,Wunderground v.1.15,2013-01-11 02:08:00,
2013-01-10 20:14:00,31.8,29.7,29.75,SSE,152,8.0,11.0,92,0.00,,,0.08,Wunderground v.1.15,2013-01-11 02:14:00,
2013-01-10 20:19:00,31.9,29.8,29.75,SSE,154,11.0,15.0,92,0.00,,,0.08,Wunderground v.1.15,2013-01-11 02:19:00,
2013-01-10 20:24:00,31.9,29.8,29.75,SSE,156,11.0,13.0,92,0.00,,,0.08,Wunderground v.1.15,2013-01-11 02:24:00,
2013-01-10 20:29:00,31.9,29.8,29.74,SSE,159,9.0,13.0,92,0.00,,,0.08,Wunderground v.1.15,2013-01-11 02:29:00,
2013-01-10 20:35:00,32.0,29.9,29.74,SSE,159,10.0,10.0,92,0.00,,,0.08,Wunderground v.1.15,2013-01-11 02:35:00,
2013-01-10 20:40:00,32.1,30.0,29.74,SSE,161,6.0,10.0,92,0.00,,,0.08,Wunderground v.1.15,2013-01-11 02:40:00,
2013-01-10 20:45:00,32.1,30.0,29.73,SSE,167,8.0,12.0,92,0.00,,,0.08,Wunderground v.1.15,2013-01-11 02:45:00,
2013-01-10 20:50:00,32.1,30.0,29.73,South,169,5.0,12.0,92,0.00,,,0.08,Wunderground v.1.15,2013-01-11 02:50:00,
2013-01-10 20:55:00,32.1,30.0,29.73,South,172,9.0,12.0,92,0.00,,,0.08,Wunderground v.1.15,2013-01-11 02:55:00,
2013-01-10 21:00:00,32.2,30.1,29.73,South,169,8.0,12.0,92,0.00,,,0.08,Wunderground v.1.15,2013-01-11 03:00:00,
2013-01-10 21:05:00,32.2,30.1,29.72,South,169,8.0,10.0,92,0.00,,,0.08,Wunderground v.1.15,2013-01-11 03:05:00,
2013-01-10 21:11:00,32.2,30.1,29.72,SSE,168,8.0,8.0,92,0.00,,,0.08,Wunderground v.1.15,2013-01-11 03:11:00,
2013-01-10 21:16:00,32.2,30.1,29.72,South,170,10.0,10.0,92,0.00,,,0.08,Wunderground v.1.15,2013-01-11 03:16:00,
2013-01-10 21:21:00,32.3,30.2,29.72,South,169,8.0,8.0,92,0.00,,,0.08,Wunderground v.1.15,2013-01-11 03:21:00,
2013-01-10 21:27:00,32.3,30.2,29.72,South,175,8.0,10.0,92,0.00,,,0.08,Wunderground v.1.15,2013-01-11 03:27:00,
2013-01-10 21:32:00,32.4,30.3,29.72,South,175,8.0,8.0,92,0.00,,,0.08,Wunderground v.1.15,2013-01-11 03:32:00,
2013-01-10 21:37:00,32.5,30.7,29.72,South,175,8.0,11.0,93,0.00,,,0.08,Wunderground v.1.15,2013-01-11 03:37:00,
2013-01-10 21:42:00,32.5,30.7,29.71,South,173,9.0,10.0,93,0.00,,,0.08,Wunderground v.1.15,2013-01-11 03:42:00,
2013-01-10 21:47:00,32.5,30.7,29.71,South,171,11.0,11.0,93,0.00,,,0.08,Wunderground v.1.15,2013-01-11 03:47:00,
2013-01-10 21:52:00,32.5,30.7,29.71,South,172,7.0,8.0,93,0.00,,,0.08,Wunderground v.1.15,2013-01-11 03:52:00,
2013-01-10 21:57:00,32.5,30.7,29.71,SSE,168,13.0,14.0,93,0.00,,,0.08,Wunderground v.1.15,2013-01-11 03:57:00,
2013-01-10 22:02:00,32.6,30.8,29.71,South,172,10.0,11.0,93,0.00,,,0.08,Wunderground v.1.15,2013-01-11 04:02:00,
2013-01-10 22:07:00,32.5,30.7,29.71,South,173,11.0,11.0,93,0.00,,,0.08,Wunderground v.1.15,2013-01-11 04:07:00,
2013-01-10 22:12:00,32.6,30.8,29.70,South,173,9.0,11.0,93,0.00,,,0.08,Wunderground v.1.15,2013-01-11 04:12:00,
2013-01-10 22:17:00,32.4,30.6,29.70,South,171,8.0,12.0,93,0.00,,,0.08,Wunderground v.1.15,2013-01-11 04:17:00,
2013-01-10 22:23:00,32.5,30.7,29.69,SSE,167,9.0,13.0,93,0.00,,,0.08,Wunderground v.1.15,2013-01-11 04:23:00,
2013-01-10 22:28:00,32.5,30.7,29.69,SSE,166,9.0,13.0,93,0.00,,,0.08,Wunderground v.1.15,2013-01-11 04:28:00,
2013-01-10 22:33:00,32.5,30.7,29.69,SSE,167,10.0,10.0,93,0.00,,,0.08,Wunderground v.1.15,2013-01-11 04:33:00,
2013-01-10 22:38:00,32.5,30.7,29.69,SSE,168,7.0,11.0,93,0.00,,,0.08,Wunderground v.1.15,2013-01-11 04:38:00,
2013-01-10 22:43:00,32.5,30.7,29.69,South,169,7.0,9.0,93,0.00,,,0.08,Wunderground v.1.15,2013-01-11 04:43:00,
2013-01-10 22:49:00,32.6,30.8,29.69,South,169,7.0,12.0,93,0.00,,,0.08,Wunderground v.1.15,2013-01-11 04:49:00,
2013-01-10 22:54:00,32.6,30.8,29.69,South,170,6.0,10.0,93,0.00,,,0.08,Wunderground v.1.15,2013-01-11 04:54:00,
2013-01-10 22:59:00,32.6,30.8,29.68,South,169,9.0,11.0,93,0.00,,,0.08,Wunderground v.1.15,2013-01-11 04:59:00,
2013-01-10 23:01:00,32.6,30.8,29.68,South,171,7.0,8.0,93,0.00,,,0.08,Wunderground v.1.15,2013-01-11 05:01:00,
2013-01-10 23:03:00,32.6,30.8,29.68,South,170,7.0,10.0,93,0.00,,,0.08,Wunderground v.1.15,2013-01-11 05:03:00,
2013-01-10 23:08:00,32.6,30.8,29.68,South,169,7.0,10.0,93,0.00,,,0.08,Wunderground v.1.15,2013-01-11 05:08:00,
2013-01-10 23:13:00,32.7,30.9,29.68,South,169,9.0,10.0,93,0.00,,,0.08,Wunderground v.1.15,2013-01-11 05:13:00,
2013-01-10 23:18:00,32.7,30.9,29.67,SSE,168,9.0,11.0,93,0.00,,,0.08,Wunderground v.1.15,2013-01-11 05:18:00,
2013-01-10 23:23:00,32.7,30.9,29.67,South,169,8.0,11.0,93,0.00,,,0.08,Wunderground v.1.15,2013-01-11 05:23:00,
2013-01-10 23:29:00,32.7,30.9,29.67,SSE,165,7.0,11.0,93,0.00,,,0.08,Wunderground v.1.15,2013-01-11 05:29:00,
2013-01-10 23:35:00,32.8,31.0,29.66,SSE,163,12.0,13.0,93,0.00,,,0.08,Wunderground v.1.15,2013-01-11 05:35:00,
2013-01-10 23:41:00,32.8,31.0,29.66,SSE,165,7.0,9.0,93,0.00,,,0.08,Wunderground v.1.15,2013-01-11 05:41:00,
2013-01-10 23:47:00,32.8,31.0,29.66,SSE,164,8.0,10.0,93,0.00,,,0.08,Wunderground v.1.15,2013-01-11 05:47:00,
2013-01-10 23:52:00,32.8,31.0,29.66,SSE,164,8.0,9.0,93,0.00,,,0.08,Wunderground v.1.15,2013-01-11 05:52:00,
2013-01-10 23:57:00,32.8,31.0,29.66,SSE,163,8.0,10.0,93,0.00,,,0.08,Wunderground v.1.15,2013-01-11 05:57:00,